Torna al catalogo

STARLINK-36467

AttivoComunicazioniVLEO
NORAD 67348·PAYLOAD·🇺🇸 United States

Lanciato Jan 9, 2026 da Cape Canaveral Space Force Station

Loading…

Prossimi Passaggi (prossime 24 ore)

TLE

AggiornatoSource: CelesTrak SupGP

Epoca: Sep 15, 2026, 03:46 UTC

1 67348C 26003Q   26258.15743056 -.00023453  00000+0 -85022-3 0  2589
2 67348  43.0022 237.2236 0001195 266.1795 272.1721 15.27561031    12

Traccia STARLINK-36467 in tempo reale con AllMySat

Download on the App Store